SCP
0 0 0 0 0 0 0 0 0 0 0 0 0 0 0 0 0 0 0 -0 -0 -0 -0 -0 -0 -0 -0 -0 -0 -0 0 0 0 0 0 0 0 0 0 0 0 0 0 0 0 0 0 0 0
0 0 0 0 0 0 0 0 0 0 0 0 0 0 0 0 0 0 0 0 -0 -0 -0 0 -0 -0 -0 -0 -0 -0 0 0 0 0 0 0 0 0 0 0 0 0 0 0 0 0 0 0 0
0 0 0 0 0 0 0 0 0 0 0 0 0 0 0 0 0 0 0 -0 -0 -0 0 -0 -0 -0 -0 -0 -0 0 0 0 0 0 0 0 0 0 0 0 0 0 0 0 0 0 0 0 0
0 0 0 0 0 0 0 0 0 0 0 0 0 0 0 0 0 0 -0 -0 -0 -0 0 -0 -0 -0 -0 -0 -0 -0 0 0 0 0 0 0 0 0 0 0 0 0 0 0 0 0 0 0 0
0 0 0 0 0 0 0 0 0 0 0 0 0 0 0 0 0 -0 -0 -0 -0 0 0 -0 -0 -0 -0 -0 0 0 0 0 0 0 0 0 0 0 0 0 0 0 0 0 0 0 0 0 0
0 0 0 0 0 0 0 0 0 0 0 0 0 0 0 0 0 0 -0 -0 -0 -0 -0 -0 -0 -0 -0 0 0 0 0 0 0 0 0 0 0 0 0 0 0 0 0 0 0 0 0 0 0
0 0 0 0 0 0 0 0 0 0 0 0 0 0 0 0 0 0 -0 -0 -0 0 0 0 0 -0 0 0 0 0 0 0 0 0 0 0 0 0 0 0 0 0 0 0 0 0 0 0 0
0 0 0 0 0 0 0 0 0 0 0 0 0 0 0 0 0 0 -0 -0 -0 0 0 0 0 0 0 0 0 0 0 0 0 0 0 0 0 0 0 0 0 0 0 0 0 0 0 0 0
0 0 0 0 0 0 0 0 0 0 0 0 0 0 0 0 0 0 -0 0 0 0 0 0 0 0 0 0 0 0 0 0 0 0 0 0 0 0 0 0 0 0 0 0 0 0 0 0 0
0 0 0 0 0 0 0 0 0 0 0 0 0 0 0 0 0 0 -0 0 0 0 0 0 0 0 0 0 0 0 0 0 0 0 0 0 0 0 0 0 0 0 0 0 0 0 0 0 0
0 0 0 0 0 0 0 0 0 0 0 0 0 0 0 0 0 0 0 0 0 0 0 0 0 0 0 0 0 0 0 0 0 0 0 0 0 0 0 0 0 0 0 0 0 0 0 0 0
0 0 0 0 0 0 0 0 0 0 0 0 0 0 0 0 0 0 0 0 0 0 0 0 0 0 0 0 0 0 0 0 0 0 0 0 0 0 0 0 0 0 0 0 0 0 0 0 0
0 0 0 0 0 0 0 0 0 0 0 0 0 0 0 0 0 0 0 0 0 0 0 0 0 0 0 0 0 0 0 0 0 0 0 0 0 0 0 0 0 0 0 0 0 0 0 0 0
0 0 0 0 0 0 0 0 0 0 0 0 0 0 0 0 0 0 0 0 0 0 0 0 0 0 0 0 0 0 0 0 0 0 0 0 0 0 0 0 0 0 0 0 0 0 0 0 0
0 0 0 0 0 0 0 0 0 0 0 0 0 0 0 0 0 0 0 0 0 0 0 0 0 0 0 0 0 0 0 0 0 0 0 0 0 0 0 0 0 0 0 0 0 0 0 0 0
0 0 0 0 0 0 0 0 0 0 0 0 0 0 0 0 0 0 0 0 0 0 0 0 0 0 0 0 0 0 0 0 0 0 0 0 0 0 0 0 0 0 0 0 0 0 0 0 0
0 0 0 0 0 0 0 0 0 0 0 0 0 0 0 0 0 0 0 0 0 0 0 0 0 0 0 0 0 0 0 0 0 0 0 0 0 0 0 0 0 0 0 0 0 0 0 0 0
0 0 0 0 0 0 0 0 0 0 0 0 0 0 0 0 0 0 0 0 0 0 0 0 0 0 0 0 0 0 0 0 0 0 0 0 0 0 0 0 0 0 0 0 0 0 0 0 0
0 0 0 0 0 0 0 0 0 0 0 0 0 0 0 0 0 0 0 0 0 0 0 0 0 0 0 0 0 0 0 0 0 0 0 0 0 0 0 0 0 0 0 0 0 0 0 0 0
0 0 0 0 0 0 0 0 0 0 0 0 0 0 0 0 0 0 0 0 0 0 0 0 0 0 0 0 0 0 0 0 0 0 0 0 0 0 0 0 0 0 0 0 0 0 0 0 0
0 0 0 0 0 0 0 0 0 0 0 0 0 0 0 0 0 0 0 0 0 0 0 0 0 0 0 0 0 0 0 0 0 0 0 0 0 0 0 0 0 0 0 0 0 0 0 0 0
0 0 0 0 0 0 0 0 0 0 0 0 0 0 0 0 0 0 0 0 0 0 0 0 0 0 0 0 0 0 0 0 0 0 0 0 0 0 0 0 0 0 0 0 0 0 0 0 0
0 0 0 0 0 0 0 0 0 0 0 0 0 0 0 0 0 0 0 0 0 0 0 0 0 0 0 0 0 0 0 0 0 0 0 0 0 0 0 0 0 0 0 0 0 0 0 0 0
0 0 0 0 0 0 0 0 0 0 0 0 0 0 0 0 0 0 0 0 0 0 0 0 0 0 0 0 0 0 0 0 0 0 0 0 0 0 0 0 0 0 0 0 0 0 0 0 0
0 0 0 0 0 0 0 0 0 0 0 0 0 0 0 0 0 0 0 0 0 0 0 0 0 0 0 0 0 0 0 0 0 0 0 0 0 0 0 0 0 0 0 0 0 0 0 0 0
0 0 0 0 0 0 0 0 0 0 0 0 0 0 0 0 0 0 0 0 0 0 0 0 0 0 0 0 0 0 0 0 0 0 0 0 0 0 0 0 0 0 0 0 0 0 0 0 0
0 0 0 0 0 0 0 0 0 0 0 0 0 0 0 0 0 0 0 0 0 0 0 0 0 0 0 0 0 0 0 0 0 0 0 0 0 0 0 0 0 0 0 0 0 0 0 0 0
0 0 0 0 0 0 0 0 0 0 0 0 0 0 0 0 0 0 0 0 0 0 0 0 0 0 0 0 0 0 0 0 0 0 0 0 0 0 0 0 0 0 0 0 0 0 0 0 0
0 0 0 0 0 0 0 0 0 0 0 0 0 0 0 0 0 0 0 0 0 0 0 0 0 0 0 0 0 0 0 0 0 0 0 0 0 0 0 0 0 0 0 0 0 0 0 0 0
0 0 0 0 0 0 0 0 0 0 0 0 0 0 0 0 0 0 0 0 0 0 0 0 0 0 0 0 0 0 0 0 0 0 0 0 0 0 0 0 0 0 0 0 0 0 0 0 0
Wind_Speed_500mb
12 6 9 1 7 9 5 9 4 4 3 7 6 16 17 10 7 5 21 22 12 13 22 28 23 20 16 12 13 11 5 5 8 11 14 17 20 24 27 30 31 32 34 36 38 40 42 44 46
10 5 4 4 8 5 8 7 6 4 2 12 13 10 14 5 8 13 20 15 12 14 24 29 25 20 18 14 12 10 5 7 10 13 17 21 24 27 31 34 35 36 38 39 41 44 47 49 50
10 2 1 7 6 7 7 8 7 4 3 5 8 16 7 4 9 16 8 16 19 21 23 32 24 18 15 19 10 3 5 8 11 15 19 23 27 30 31 33 35 38 40 42 44 47 48 48 49
6 5 6 6 6 9 7 5 6 2 2 7 17 12 10 5 12 6 14 19 17 22 21 30 27 22 20 17 11 8 8 11 14 18 21 24 27 30 32 35 39 41 43 43 43 43 43 44 43
4 5 5 4 7 9 7 4 5 2 4 9 1 6 7 3 7 10 16 18 12 22 23 29 27 23 15 7 9 6 8 11 15 21 25 27 30 33 37 41 44 44 43 41 36 32 32 31 31
5 4 6 2 8 9 9 3 2 2 6 7 10 9 5 7 11 16 16 15 10 8 18 21 24 18 5 5 5 5 10 13 18 23 26 29 33 37 41 43 42 41 37 32 27 26 27 27 29
5 2 6 3 6 9 3 1 3 2 7 9 7 7 9 15 15 15 16 13 8 8 8 10 20 10 6 4 4 6 13 16 19 23 27 31 36 38 40 40 39 37 33 28 26 26 26 26 22
6 2 7 7 2 5 5 2 2 5 4 9 4 7 9 25 22 19 19 17 14 9 10 12 16 10 7 6 4 8 13 15 20 24 27 33 37 39 38 38 35 30 25 26 25 25 26 29 24
3 4 4 5 3 9 6 2 4 5 5 10 5 4 10 31 25 25 25 22 20 13 10 9 6 6 6 5 3 8 12 16 21 26 29 34 37 36 35 34 32 27 24 23 27 26 31 32 30
5 5 9 4 2 5 11 2 7 5 6 7 10 12 25 26 21 20 21 16 19 8 9 5 4 3 4 1 4 8 13 17 21 26 31 36 37 37 34 31 30 26 21 26 29 26 31 30 30
3 6 5 3 8 15 12 8 6 4 7 11 10 13 22 20 17 14 14 15 9 4 9 3 2 5 3 4 6 8 12 18 23 28 34 37 37 34 31 28 23 20 22 25 22 26 30 33 34
0 9 9 18 15 14 12 13 6 13 16 15 13 16 20 17 17 20 21 21 15 9 9 3 3 5 6 7 8 9 13 18 25 29 33 36 35 32 28 23 19 20 21 21 24 29 32 33 36
3 8 18 24 31 18 11 8 12 28 21 11 15 21 17 13 11 15 21 21 20 16 15 7 5 6 9 11 11 11 15 20 25 31 34 35 34 28 23 19 18 19 18 22 24 27 35 38 40
11 1 29 35 26 14 4 13 6 25 26 37 29 33 26 14 5 4 11 17 18 18 24 16 9 6 9 12 13 14 16 21 25 29 31 32 29 22 19 17 18 15 19 21 26 28 35 40 40
31 7 27 24 10 6 2 13 13 20 26 43 38 35 28 23 13 9 4 10 12 13 23 21 13 6 8 11 12 13 17 21 24 27 30 28 23 18 15 17 17 17 19 22 21 24 33 38 37
7 19 9 11 12 6 6 1 22 21 24 40 35 34 30 30 25 17 8 4 9 14 26 23 13 7 8 11 11 11 15 19 23 26 25 22 17 17 19 18 15 15 17 16 20 25 30 37 42
11 8 9 14 15 7 5 5 17 23 29 40 37 34 34 30 32 30 20 17 20 24 26 22 13 5 6 9 9 10 14 20 23 23 21 17 16 18 20 17 14 15 15 15 21 25 33 42 44
9 7 10 13 10 15 17 12 14 22 32 33 35 33 36 39 41 37 35 31 29 27 24 15 8 5 6 5 6 9 14 18 21 21 18 15 16 19 19 19 18 19 20 16 20 26 28 40 43
33 10 21 9 5 13 10 9 13 20 30 29 32 34 39 36 33 34 34 30 30 22 16 9 4 2 2 1 4 8 13 19 21 19 16 14 16 19 17 18 17 20 19 20 24 29 29 39 42
7 31 30 11 7 11 7 8 10 16 14 19 26 28 24 26 28 30 25 21 21 15 12 7 5 5 4 3 5 10 15 19 18 17 14 13 17 20 18 15 18 19 18 21 27 30 32 34 46
3 8 15 11 6 10 13 3 8 6 17 22 22 24 19 24 28 25 21 22 17 13 13 10 9 8 7 8 9 10 11 13 13 16 15 14 16 21 25 18 18 17 21 24 22 27 31 31 33
6 8 12 8 7 7 7 8 7 9 8 11 11 15 16 21 22 22 21 21 20 20 15 12 10 9 8 7 5 7 9 15 21 22 20 16 16 19 21 23 25 22 21 24 24 28 27 30 32
7 5 6 8 6 4 3 4 1 12 7 7 7 9 12 16 16 17 20 18 15 13 13 13 11 9 10 11 13 16 17 19 16 15 14 15 14 18 20 21 23 25 26 25 28 28 29 24 29
9 11 13 7 5 1 13 12 7 11 9 11 10 10 11 11 11 12 11 9 6 10 10 10 10 11 12 15 17 19 17 15 16 13 10 12 12 15 17 19 21 22 24 27 29 28 27 26 27
4 13 5 5 3 8 6 7 7 9 8 17 24 16 12 11 9 9 7 5 8 9 10 9 9 9 13 13 15 17 16 14 16 17 18 15 14 16 20 22 22 22 23 26 29 28 27 27 28
14 16 10 12 7 7 5 12 3 7 22 30 27 22 16 13 13 13 11 10 10 11 10 10 10 10 11 12 13 14 11 13 13 15 16 19 19 19 20 21 22 23 24 25 26 28 28 29 28
13 10 10 7 2 4 7 5 6 13 16 25 28 24 20 15 13 14 13 13 15 15 16 16 15 14 13 14 14 13 14 13 14 14 15 15 16 17 21 24 24 23 25 25 27 26 27 25 25
12 15 6 3 7 10 8 7 9 27 25 19 23 30 27 20 17 15 16 18 21 23 24 23 24 24 26 24 25 26 25 26 25 23 22 23 23 20 19 19 22 25 28 29 30 30 32 32 32
7 8 8 6 8 9 5 10 5 26 30 28 30 34 31 26 22 20 20 22 25 28 29 31 32 32 32 32 32 30 31 31 30 31 32 33 32 34 34 35 34 31 28 28 30 32 36 38 39
3 11 13 9 9 6 3 8 10 13 36 43 38 38 33 28 27 24 24 25 27 28 30 31 31 29 31 31 28 29 29 29 30 31 32 32 33 34 34 34 34 35 36 38 39 39 39 42 45
Wind_Direction_500mb
239 274 343 255 62 64 274 264 262 301 32 344 57 98 110 54 86 178 146 155 132 165 171 168 169 172 162 166 182 196 258 293 307 318 319 314 312 310 307 305 305 305 301 299 298 294 290 286 283
207 295 324 99 89 82 267 265 246 227 146 132 63 61 49 60 66 129 141 157 155 186 175 161 166 176 170 192 208 206 254 301 315 317 317 317 315 313 312 313 312 309 305 301 297 292 288 286 286
217 260 287 91 111 180 219 223 218 270 22 181 102 70 70 73 101 143 150 164 155 179 173 160 164 177 193 197 217 6 308 310 316 317 318 318 317 316 315 315 312 308 305 300 295 292 291 290 287
169 157 71 88 218 248 226 222 218 271 75 58 117 64 79 131 151 186 160 155 154 171 169 157 169 190 199 212 244 303 319 321 321 319 318 321 320 319 320 319 316 312 308 304 301 300 299 299 294
178 212 87 78 271 271 260 239 209 234 99 43 95 132 79 104 166 150 152 149 152 165 169 170 178 192 215 209 265 287 313 318 323 325 326 327 328 328 326 325 322 321 318 317 316 315 317 324 330
244 203 85 169 264 268 290 290 310 300 85 77 72 94 87 154 143 140 151 153 154 190 183 179 185 204 201 222 257 301 315 323 330 330 330 330 329 329 327 327 324 324 325 326 336 336 332 331 325
301 99 153 125 252 301 235 35 85 46 96 53 105 85 138 159 163 152 160 164 186 209 232 215 204 212 194 226 270 312 314 326 333 332 330 331 330 330 328 327 327 327 326 328 339 342 339 338 346
212 34 122 234 231 282 339 51 71 51 79 90 84 176 178 176 173 169 175 178 197 229 262 265 227 206 202 229 273 308 312 327 335 333 331 331 333 333 332 331 334 338 339 344 344 351 351 334 349
256 106 132 6 332 303 346 25 49 63 89 93 82 147 152 175 172 180 183 188 201 228 232 224 241 211 218 234 318 306 315 333 337 333 332 336 335 335 334 334 339 342 345 352 352 352 356 359 349
75 156 142 188 274 306 324 75 358 43 50 65 88 109 144 169 176 188 198 212 215 241 241 219 223 241 234 259 312 311 326 338 337 335 336 336 338 337 339 337 339 349 352 358 360 6 2 357 355
149 193 87 55 10 351 333 6 47 91 52 54 28 154 155 171 179 202 223 242 270 265 268 266 254 276 274 293 301 320 332 335 336 340 339 339 341 340 338 338 344 353 357 2 18 17 11 3 360
57 306 325 337 348 347 343 333 30 26 359 5 20 150 169 167 183 208 232 238 257 264 257 290 325 306 301 296 308 325 326 331 338 340 339 340 342 342 341 346 354 357 3 14 31 26 18 8 359
73 225 303 287 320 327 342 357 40 34 78 143 134 143 127 160 207 230 233 233 233 234 246 250 296 318 316 313 313 312 322 334 339 339 340 343 343 345 351 358 0 1 17 43 44 32 12 1 5
166 38 287 295 301 297 356 13 56 45 92 97 107 88 86 92 103 233 237 223 226 233 239 236 245 289 311 305 301 311 325 333 338 338 340 344 347 353 3 0 355 22 39 41 35 20 11 8 9
144 214 289 262 286 254 63 40 29 2 85 92 81 75 72 63 60 61 75 202 222 219 218 219 222 248 298 301 299 316 327 333 338 342 344 348 355 4 8 355 18 28 35 44 26 22 15 5 2
203 173 202 281 190 227 140 127 25 32 79 81 74 70 65 56 51 54 65 121 177 169 189 202 206 233 294 309 308 320 328 336 342 344 349 357 8 9 360 353 14 25 40 42 24 9 13 8 356
197 167 182 306 189 111 79 134 26 42 70 59 65 65 64 69 61 62 75 107 136 158 175 187 186 234 304 305 309 322 334 341 345 353 358 8 13 5 359 10 15 24 26 35 17 10 1 2 3
226 170 162 223 216 57 79 102 56 42 64 62 65 66 71 66 67 75 85 102 121 139 155 168 186 249 293 297 311 331 341 349 1 5 9 17 15 7 19 19 29 15 17 35 9 1 1 360 6
179 243 256 159 220 93 90 75 30 39 51 53 65 70 75 77 81 89 93 102 114 123 137 157 206 264 270 271 323 338 354 360 0 8 15 20 20 12 24 26 26 16 9 9 355 355 4 7 8
56 167 234 294 97 79 132 93 78 55 56 60 66 64 65 74 82 81 90 96 104 102 99 100 103 111 122 86 23 6 0 357 4 13 23 30 26 19 17 30 29 11 4 350 354 354 359 9 9
199 186 192 177 114 59 129 188 191 63 79 74 76 78 80 75 77 78 80 80 89 92 89 93 101 106 91 63 33 16 7 20 22 34 34 33 24 23 27 20 16 11 354 350 344 346 352 354 12
209 210 135 116 122 212 205 251 212 159 112 77 75 80 81 84 91 90 85 75 79 84 87 90 90 90 82 64 51 39 36 35 35 35 42 35 24 22 30 24 23 16 359 356 345 340 346 348 348
190 143 129 127 159 61 263 32 194 140 195 162 142 124 97 94 91 85 75 80 73 88 88 82 73 73 68 59 49 62 61 54 45 37 37 49 25 21 18 12 10 12 1 353 344 346 341 338 344
129 57 48 63 112 264 213 164 228 188 187 162 163 148 131 115 106 96 82 81 99 82 89 85 72 66 61 58 60 60 57 49 41 34 17 28 5 1 351 352 352 355 356 349 352 349 342 333 329
80 85 21 360 344 219 138 174 253 152 145 158 156 143 129 141 137 121 125 135 112 106 97 90 78 68 56 51 56 60 52 47 43 35 18 8 351 348 356 348 347 341 337 335 341 345 339 334 330
163 160 155 186 206 222 130 221 213 118 117 132 140 137 132 125 124 124 118 111 103 97 94 85 73 66 57 46 45 41 50 51 42 27 12 6 4 0 350 345 346 344 339 332 330 338 334 332 323
176 191 192 101 339 98 208 289 181 144 140 138 141 145 135 130 125 118 113 109 101 93 83 76 70 67 65 58 57 52 41 30 22 10 352 347 349 345 344 347 345 335 339 334 333 323 344 335 334
153 156 120 95 183 227 217 248 224 193 181 163 157 154 146 143 138 125 112 103 98 93 89 88 85 81 74 71 67 63 58 53 49 44 40 32 22 6 349 336 331 333 334 332 333 331 333 320 329
164 180 196 144 173 196 179 247 22 192 175 170 165 166 157 154 142 131 117 107 102 100 98 94 90 86 82 75 72 69 65 60 54 49 44 39 33 29 24 21 15 5 351 340 337 334 332 330 327
222 208 184 167 208 230 224 269 330 159 165 156 159 166 162 156 144 137 128 118 113 108 104 97 92 87 79 72 68 64 61 56 52 46 42 37 31 27 22 19 15 11 8 5 2 2 356 342 333
Wind_Speed_850mb
12 6 9 1 7 9 5 9 4 4 3 7 6 16 17 10 7 5 21 22 12 13 22 28 23 20 16 12 13 11 5 5 8 11 14 17 20 24 27 30 31 32 34 36 38 40 42 44 46
10 5 4 4 8 5 8 7 6 4 2 12 13 10 14 5 8 13 20 15 12 14 24 29 25 20 18 14 12 10 5 7 10 13 17 21 24 27 31 34 35 36 38 39 41 44 47 49 50
10 2 1 7 6 7 7 8 7 4 3 5 8 16 7 4 9 16 8 16 19 21 23 32 24 18 15 19 10 3 5 8 11 15 19 23 27 30 31 33 35 38 40 42 44 47 48 48 49
6 5 6 6 6 9 7 5 6 2 2 7 17 12 10 5 12 6 14 19 17 22 21 30 27 22 20 17 11 8 8 11 14 18 21 24 27 30 32 35 39 41 43 43 43 43 43 44 43
4 5 5 4 7 9 7 4 5 2 4 9 1 6 7 3 7 10 16 18 12 22 23 29 27 23 15 7 9 6 8 11 15 21 25 27 30 33 37 41 44 44 43 41 36 32 32 31 31
5 4 6 2 8 9 9 3 2 2 6 7 10 9 5 7 11 16 16 15 10 8 18 21 24 18 5 5 5 5 10 13 18 23 26 29 33 37 41 43 42 41 37 32 27 26 27 27 29
5 2 6 3 6 9 3 1 3 2 7 9 7 7 9 15 15 15 16 13 8 8 8 10 20 10 6 4 4 6 13 16 19 23 27 31 36 38 40 40 39 37 33 28 26 26 26 26 22
6 2 7 7 2 5 5 2 2 5 4 9 4 7 9 25 22 19 19 17 14 9 10 12 16 10 7 6 4 8 13 15 20 24 27 33 37 39 38 38 35 30 25 26 25 25 26 29 24
3 4 4 5 3 9 6 2 4 5 5 10 5 4 10 31 25 25 25 22 20 13 10 9 6 6 6 5 3 8 12 16 21 26 29 34 37 36 35 34 32 27 24 23 27 26 31 32 30
5 5 9 4 2 5 11 2 7 5 6 7 10 12 25 26 21 20 21 16 19 8 9 5 4 3 4 1 4 8 13 17 21 26 31 36 37 37 34 31 30 26 21 26 29 26 31 30 30
3 6 5 3 8 15 12 8 6 4 7 11 10 13 22 20 17 14 14 15 9 4 9 3 2 5 3 4 6 8 12 18 23 28 34 37 37 34 31 28 23 20 22 25 22 26 30 33 34
0 9 9 18 15 14 12 13 6 13 16 15 13 16 20 17 17 20 21 21 15 9 9 3 3 5 6 7 8 9 13 18 25 29 33 36 35 32 28 23 19 20 21 21 24 29 32 33 36
3 8 18 24 31 18 11 8 12 28 21 11 15 21 17 13 11 15 21 21 20 16 15 7 5 6 9 11 11 11 15 20 25 31 34 35 34 28 23 19 18 19 18 22 24 27 35 38 40
11 1 29 35 26 14 4 13 6 25 26 37 29 33 26 14 5 4 11 17 18 18 24 16 9 6 9 12 13 14 16 21 25 29 31 32 29 22 19 17 18 15 19 21 26 28 35 40 40
31 7 27 24 10 6 2 13 13 20 26 43 38 35 28 23 13 9 4 10 12 13 23 21 13 6 8 11 12 13 17 21 24 27 30 28 23 18 15 17 17 17 19 22 21 24 33 38 37
7 19 9 11 12 6 6 1 22 21 24 40 35 34 30 30 25 17 8 4 9 14 26 23 13 7 8 11 11 11 15 19 23 26 25 22 17 17 19 18 15 15 17 16 20 25 30 37 42
11 8 9 14 15 7 5 5 17 23 29 40 37 34 34 30 32 30 20 17 20 24 26 22 13 5 6 9 9 10 14 20 23 23 21 17 16 18 20 17 14 15 15 15 21 25 33 42 44
9 7 10 13 10 15 17 12 14 22 32 33 35 33 36 39 41 37 35 31 29 27 24 15 8 5 6 5 6 9 14 18 21 21 18 15 16 19 19 19 18 19 20 16 20 26 28 40 43
33 10 21 9 5 13 10 9 13 20 30 29 32 34 39 36 33 34 34 30 30 22 16 9 4 2 2 1 4 8 13 19 21 19 16 14 16 19 17 18 17 20 19 20 24 29 29 39 42
7 31 30 11 7 11 7 8 10 16 14 19 26 28 24 26 28 30 25 21 21 15 12 7 5 5 4 3 5 10 15 19 18 17 14 13 17 20 18 15 18 19 18 21 27 30 32 34 46
3 8 15 11 6 10 13 3 8 6 17 22 22 24 19 24 28 25 21 22 17 13 13 10 9 8 7 8 9 10 11 13 13 16 15 14 16 21 25 18 18 17 21 24 22 27 31 31 33
6 8 12 8 7 7 7 8 7 9 8 11 11 15 16 21 22 22 21 21 20 20 15 12 10 9 8 7 5 7 9 15 21 22 20 16 16 19 21 23 25 22 21 24 24 28 27 30 32
7 5 6 8 6 4 3 4 1 12 7 7 7 9 12 16 16 17 20 18 15 13 13 13 11 9 10 11 13 16 17 19 16 15 14 15 14 18 20 21 23 25 26 25 28 28 29 24 29
9 11 13 7 5 1 13 12 7 11 9 11 10 10 11 11 11 12 11 9 6 10 10 10 10 11 12 15 17 19 17 15 16 13 10 12 12 15 17 19 21 22 24 27 29 28 27 26 27
4 13 5 5 3 8 6 7 7 9 8 17 24 16 12 11 9 9 7 5 8 9 10 9 9 9 13 13 15 17 16 14 16 17 18 15 14 16 20 22 22 22 23 26 29 28 27 27 28
14 16 10 12 7 7 5 12 3 7 22 30 27 22 16 13 13 13 11 10 10 11 10 10 10 10 11 12 13 14 11 13 13 15 16 19 19 19 20 21 22 23 24 25 26 28 28 29 28
13 10 10 7 2 4 7 5 6 13 16 25 28 24 20 15 13 14 13 13 15 15 16 16 15 14 13 14 14 13 14 13 14 14 15 15 16 17 21 24 24 23 25 25 27 26 27 25 25
12 15 6 3 7 10 8 7 9 27 25 19 23 30 27 20 17 15 16 18 21 23 24 23 24 24 26 24 25 26 25 26 25 23 22 23 23 20 19 19 22 25 28 29 30 30 32 32 32
7 8 8 6 8 9 5 10 5 26 30 28 30 34 31 26 22 20 20 22 25 28 29 31 32 32 32 32 32 30 31 31 30 31 32 33 32 34 34 35 34 31 28 28 30 32 36 38 39
3 11 13 9 9 6 3 8 10 13 36 43 38 38 33 28 27 24 24 25 27 28 30 31 31 29 31 31 28 29 29 29 30 31 32 32 33 34 34 34 34 35 36 38 39 39 39 42 45
Wind_Direction_850mb
239 274 343 255 62 64 274 264 262 301 32 344 57 98 110 54 86 178 146 155 132 165 171 168 169 172 162 166 182 196 258 293 307 318 319 314 312 310 307 305 305 305 301 299 298 294 290 286 283
207 295 324 99 89 82 267 265 246 227 146 132 63 61 49 60 66 129 141 157 155 186 175 161 166 176 170 192 208 206 254 301 315 317 317 317 315 313 312 313 312 309 305 301 297 292 288 286 286
217 260 287 91 111 180 219 223 218 270 22 181 102 70 70 73 101 143 150 164 155 179 173 160 164 177 193 197 217 6 308 310 316 317 318 318 317 316 315 315 312 308 305 300 295 292 291 290 287
169 157 71 88 218 248 226 222 218 271 75 58 117 64 79 131 151 186 160 155 154 171 169 157 169 190 199 212 244 303 319 321 321 319 318 321 320 319 320 319 316 312 308 304 301 300 299 299 294
178 212 87 78 271 271 260 239 209 234 99 43 95 132 79 104 166 150 152 149 152 165 169 170 178 192 215 209 265 287 313 318 323 325 326 327 328 328 326 325 322 321 318 317 316 315 317 324 330
244 203 85 169 264 268 290 290 310 300 85 77 72 94 87 154 143 140 151 153 154 190 183 179 185 204 201 222 257 301 315 323 330 330 330 330 329 329 327 327 324 324 325 326 336 336 332 331 325
301 99 153 125 252 301 235 35 85 46 96 53 105 85 138 159 163 152 160 164 186 209 232 215 204 212 194 226 270 312 314 326 333 332 330 331 330 330 328 327 327 327 326 328 339 342 339 338 346
212 34 122 234 231 282 339 51 71 51 79 90 84 176 178 176 173 169 175 178 197 229 262 265 227 206 202 229 273 308 312 327 335 333 331 331 333 333 332 331 334 338 339 344 344 351 351 334 349
256 106 132 6 332 303 346 25 49 63 89 93 82 147 152 175 172 180 183 188 201 228 232 224 241 211 218 234 318 306 315 333 337 333 332 336 335 335 334 334 339 342 345 352 352 352 356 359 349
75 156 142 188 274 306 324 75 358 43 50 65 88 109 144 169 176 188 198 212 215 241 241 219 223 241 234 259 312 311 326 338 337 335 336 336 338 337 339 337 339 349 352 358 360 6 2 357 355
149 193 87 55 10 351 333 6 47 91 52 54 28 154 155 171 179 202 223 242 270 265 268 266 254 276 274 293 301 320 332 335 336 340 339 339 341 340 338 338 344 353 357 2 18 17 11 3 360
57 306 325 337 348 347 343 333 30 26 359 5 20 150 169 167 183 208 232 238 257 264 257 290 325 306 301 296 308 325 326 331 338 340 339 340 342 342 341 346 354 357 3 14 31 26 18 8 359
73 225 303 287 320 327 342 357 40 34 78 143 134 143 127 160 207 230 233 233 233 234 246 250 296 318 316 313 313 312 322 334 339 339 340 343 343 345 351 358 0 1 17 43 44 32 12 1 5
166 38 287 295 301 297 356 13 56 45 92 97 107 88 86 92 103 233 237 223 226 233 239 236 245 289 311 305 301 311 325 333 338 338 340 344 347 353 3 0 355 22 39 41 35 20 11 8 9
144 214 289 262 286 254 63 40 29 2 85 92 81 75 72 63 60 61 75 202 222 219 218 219 222 248 298 301 299 316 327 333 338 342 344 348 355 4 8 355 18 28 35 44 26 22 15 5 2
203 173 202 281 190 227 140 127 25 32 79 81 74 70 65 56 51 54 65 121 177 169 189 202 206 233 294 309 308 320 328 336 342 344 349 357 8 9 360 353 14 25 40 42 24 9 13 8 356
197 167 182 306 189 111 79 134 26 42 70 59 65 65 64 69 61 62 75 107 136 158 175 187 186 234 304 305 309 322 334 341 345 353 358 8 13 5 359 10 15 24 26 35 17 10 1 2 3
226 170 162 223 216 57 79 102 56 42 64 62 65 66 71 66 67 75 85 102 121 139 155 168 186 249 293 297 311 331 341 349 1 5 9 17 15 7 19 19 29 15 17 35 9 1 1 360 6
179 243 256 159 220 93 90 75 30 39 51 53 65 70 75 77 81 89 93 102 114 123 137 157 206 264 270 271 323 338 354 360 0 8 15 20 20 12 24 26 26 16 9 9 355 355 4 7 8
56 167 234 294 97 79 132 93 78 55 56 60 66 64 65 74 82 81 90 96 104 102 99 100 103 111 122 86 23 6 0 357 4 13 23 30 26 19 17 30 29 11 4 350 354 354 359 9 9
199 186 192 177 114 59 129 188 191 63 79 74 76 78 80 75 77 78 80 80 89 92 89 93 101 106 91 63 33 16 7 20 22 34 34 33 24 23 27 20 16 11 354 350 344 346 352 354 12
209 210 135 116 122 212 205 251 212 159 112 77 75 80 81 84 91 90 85 75 79 84 87 90 90 90 82 64 51 39 36 35 35 35 42 35 24 22 30 24 23 16 359 356 345 340 346 348 348
190 143 129 127 159 61 263 32 194 140 195 162 142 124 97 94 91 85 75 80 73 88 88 82 73 73 68 59 49 62 61 54 45 37 37 49 25 21 18 12 10 12 1 353 344 346 341 338 344
129 57 48 63 112 264 213 164 228 188 187 162 163 148 131 115 106 96 82 81 99 82 89 85 72 66 61 58 60 60 57 49 41 34 17 28 5 1 351 352 352 355 356 349 352 349 342 333 329
80 85 21 360 344 219 138 174 253 152 145 158 156 143 129 141 137 121 125 135 112 106 97 90 78 68 56 51 56 60 52 47 43 35 18 8 351 348 356 348 347 341 337 335 341 345 339 334 330
163 160 155 186 206 222 130 221 213 118 117 132 140 137 132 125 124 124 118 111 103 97 94 85 73 66 57 46 45 41 50 51 42 27 12 6 4 0 350 345 346 344 339 332 330 338 334 332 323
176 191 192 101 339 98 208 289 181 144 140 138 141 145 135 130 125 118 113 109 101 93 83 76 70 67 65 58 57 52 41 30 22 10 352 347 349 345 344 347 345 335 339 334 333 323 344 335 334
153 156 120 95 183 227 217 248 224 193 181 163 157 154 146 143 138 125 112 103 98 93 89 88 85 81 74 71 67 63 58 53 49 44 40 32 22 6 349 336 331 333 334 332 333 331 333 320 329
164 180 196 144 173 196 179 247 22 192 175 170 165 166 157 154 142 131 117 107 102 100 98 94 90 86 82 75 72 69 65 60 54 49 44 39 33 29 24 21 15 5 351 340 337 334 332 330 327
222 208 184 167 208 230 224 269 330 159 165 156 159 166 162 156 144 137 128 118 113 108 104 97 92 87 79 72 68 64 61 56 52 46 42 37 31 27 22 19 15 11 8 5 2 2 356 342 333